Back to catalog

STARLINK-30757

AliveCommunicationsVLEO
NORAD 58131·PAYLOAD·🇺🇸 United States

Launched Oct 22, 2023 from Cape Canaveral Space Force Station

Loading…

Next Passes (next 24 hours)

TLE

FreshSource: CelesTrak SupGP

Epoch: Sep 14, 2026, 21:21 UTC

1 58131C 23162P   26257.89006944 -.00053333  00000+0 -19318-2 0  2573
2 58131  42.9989 140.6590 0001318 266.7426  30.8185 15.27604195    18

Track STARLINK-30757 in real time with AllMySat

Download on the App Store